QPF
0.05 0.05 0.04 0.05 0.03 0.02 0.02 0.01 0.01 0.01 0.01 0.00 0.00 0.00 0.00 0.00 0.00 0.00 0.00 0.00 0.00 0.00 0.00 0.00 0.01 0.01 0.01 0.01 0.01 0.02 0.02 0.02 0.02 0.03 0.03 0.02 0.02 0.02 0.02 0.01 0.02 0.02 0.02
0.03 0.03 0.03 0.03 0.03 0.02 0.02 0.01 0.01 0.01 0.01 0.00 0.00 0.00 0.00 0.00 0.00 0.00 0.00 0.00 0.00 0.00 0.00 0.00 0.01 0.01 0.01 0.02 0.02 0.02 0.03 0.02 0.01 0.02 0.03 0.03 0.02 0.02 0.01 0.01 0.01 0.01 0.02
0.03 0.02 0.02 0.02 0.02 0.02 0.02 0.01 0.01 0.01 0.01 0.01 0.00 0.00 0.00 0.00 0.00 0.00 0.00 0.00 0.00 0.00 0.00 0.00 0.00 0.00 0.00 0.01 0.01 0.02 0.04 0.04 0.02 0.01 0.02 0.02 0.03 0.02 0.01 0.01 0.01 0.01 0.02
0.02 0.03 0.04 0.05 0.04 0.04 0.03 0.02 0.01 0.01 0.01 0.01 0.00 0.00 0.00 0.00 0.00 0.00 0.00 0.00 0.00 0.00 0.00 0.00 0.00 0.00 0.00 0.00 0.00 0.00 0.02 0.03 0.03 0.02 0.01 0.01 0.02 0.03 0.02 0.01 0.02 0.02 0.01
0.00 0.01 0.03 0.03 0.04 0.03 0.02 0.02 0.01 0.01 0.01 0.02 0.02 0.01 0.00 0.00 0.00 0.00 0.00 0.00 0.00 0.00 0.00 0.00 0.00 0.00 0.00 0.00 0.00 0.00 0.00 0.02 0.03 0.03 0.02 0.02 0.01 0.02 0.02 0.01 0.02 0.03 0.02
0.00 0.00 0.01 0.02 0.02 0.02 0.01 0.01 0.01 0.01 0.01 0.01 0.02 0.02 0.00 0.00 0.00 0.00 0.00 0.00 0.00 0.01 0.00 0.00 0.00 0.00 0.00 0.00 0.00 0.00 0.00 0.01 0.01 0.02 0.02 0.02 0.02 0.02 0.01 0.01 0.01 0.02 0.02
0.00 0.00 0.00 0.00 0.01 0.01 0.00 0.01 0.01 0.01 0.01 0.01 0.01 0.02 0.01 0.00 0.00 0.00 0.00 0.00 0.01 0.01 0.00 0.00 0.00 0.00 0.01 0.01 0.01 0.00 0.00 0.00 0.00 0.01 0.01 0.01 0.01 0.01 0.01 0.02 0.02 0.02 0.01
0.01 0.00 0.00 0.00 0.00 0.00 0.00 0.00 0.00 0.00 0.01 0.01 0.01 0.01 0.01 0.01 0.00 0.00 0.00 0.00 0.01 0.00 0.00 0.00 0.00 0.00 0.00 0.00 0.00 0.00 0.01 0.00 0.01 0.00 0.00 0.01 0.01 0.02 0.01 0.01 0.01 0.01 0.01
0.01 0.01 0.01 0.01 0.00 0.00 0.00 0.00 0.00 0.00 0.00 0.01 0.01 0.01 0.01 0.01 0.00 0.00 0.00 0.00 0.00 0.00 0.00 0.00 0.00 0.00 0.00 0.01 0.00 0.00 0.00 0.00 0.00 0.00 0.00 0.01 0.01 0.01 0.01 0.01 0.01 0.01 0.02
0.01 0.01 0.00 0.01 0.01 0.01 0.00 0.00 0.00 0.00 0.00 0.01 0.01 0.01 0.01 0.01 0.00 0.00 0.00 0.01 0.00 0.00 0.00 0.00 0.00 0.00 0.00 0.00 0.00 0.00 0.00 0.00 0.00 0.00 0.00 0.00 0.00 0.00 0.00 0.00 0.00 0.01 0.01
0.01 0.01 0.00 0.01 0.01 0.01 0.00 0.00 0.00 0.00 0.00 0.01 0.02 0.02 0.01 0.01 0.00 0.00 0.00 0.00 0.00 0.00 0.00 0.00 0.00 0.00 0.00 0.00 0.00 0.00 0.00 0.00 0.00 0.00 0.00 0.00 0.00 0.01 0.01 0.01 0.01 0.01 0.01
0.00 0.00 0.00 0.01 0.01 0.01 0.00 0.00 0.00 0.00 0.00 0.01 0.01 0.02 0.01 0.01 0.00 0.00 0.00 0.00 0.00 0.00 0.00 0.00 0.00 0.00 0.00 0.00 0.00 0.00 0.00 0.00 0.01 0.01 0.01 0.01 0.01 0.01 0.01 0.01 0.01 0.01 0.01
0.00 0.00 0.01 0.01 0.01 0.00 0.00 0.00 0.00 0.00 0.00 0.01 0.01 0.01 0.01 0.01 0.00 0.00 0.00 0.00 0.00 0.00 0.00 0.00 0.00 0.00 0.00 0.00 0.00 0.00 0.00 0.00 0.00 0.00 0.00 0.00 0.00 0.00 0.00 0.00 0.01 0.01 0.00
0.00 0.00 0.00 0.01 0.01 0.01 0.00 0.00 0.00 0.00 0.00 0.00 0.01 0.01 0.01 0.00 0.00 0.00 0.00 0.00 0.00 0.00 0.00 0.00 0.00 0.00 0.00 0.00 0.00 0.00 0.00 0.00 0.00 0.00 0.00 0.00 0.00 0.00 0.00 0.00 0.00 0.00 0.01
0.00 0.00 0.00 0.00 0.00 0.00 0.00 0.00 0.00 0.00 0.00 0.00 0.00 0.00 0.00 0.00 0.00 0.00 0.00 0.00 0.00 0.00 0.00 0.00 0.00 0.00 0.00 0.00 0.00 0.00 0.00 0.00 0.00 0.00 0.00 0.00 0.00 0.00 0.00 0.00 0.00 0.00 0.01
0.00 0.00 0.00 0.00 0.00 0.00 0.00 0.00 0.00 0.00 0.00 0.00 0.00 0.00 0.00 0.00 0.00 0.00 0.00 0.00 0.00 0.00 0.00 0.00 0.00 0.00 0.00 0.00 0.00 0.00 0.00 0.00 0.00 0.00 0.00 0.00 0.00 0.00 0.00 0.00 0.00 0.00 0.00
0.00 0.01 0.01 0.00 0.00 0.00 0.00 0.01 0.01 0.00 0.00 0.00 0.00 0.00 0.00 0.00 0.01 0.00 0.00 0.00 0.01 0.01 0.01 0.01 0.01 0.01 0.00 0.00 0.00 0.00 0.00 0.00 0.00 0.00 0.00 0.00 0.00 0.00 0.00 0.00 0.00 0.00 0.00
0.00 0.01 0.01 0.01 0.01 0.00 0.00 0.01 0.01 0.00 0.00 0.00 0.00 0.01 0.01 0.01 0.01 0.01 0.01 0.01 0.02 0.03 0.03 0.02 0.01 0.00 0.00 0.00 0.00 0.00 0.00 0.00 0.00 0.00 0.00 0.00 0.00 0.00 0.00 0.00 0.00 0.00 0.00
0.00 0.00 0.01 0.01 0.01 0.01 0.01 0.00 0.00 0.00 0.00 0.01 0.01 0.01 0.01 0.01 0.02 0.03 0.04 0.05 0.05 0.04 0.02 0.01 0.00 0.00 0.00 0.00 0.00 0.00 0.00 0.00 0.00 0.00 0.00 0.00 0.00 0.00 0.00 0.00 0.00 0.00 0.00
0.00 0.00 0.00 0.00 0.00 0.00 0.01 0.00 0.00 0.01 0.00 0.00 0.00 0.00 0.00 0.01 0.02 0.03 0.04 0.04 0.02 0.01 0.00 0.00 0.00 0.00 0.00 0.00 0.00 0.00 0.00 0.00 0.00 0.00 0.00 0.00 0.00 0.00 0.00 0.00 0.00 0.00 0.00
0.00 0.00 0.00 0.00 0.00 0.00 0.00 0.00 0.00 0.01 0.00 0.00 0.00 0.00 0.00 0.01 0.01 0.01 0.00 0.01 0.01 0.01 0.00 0.00 0.00 0.00 0.00 0.00 0.00 0.00 0.00 0.00 0.00 0.00 0.00 0.00 0.00 0.00 0.00 0.00 0.00 0.00 0.00
0.00 0.00 0.00 0.00 0.00 0.00 0.00 0.00 0.00 0.00 0.00 0.00 0.00 0.00 0.00 0.01 0.01 0.00 0.00 0.01 0.01 0.01 0.00 0.00 0.00 0.01 0.01 0.01 0.00 0.00 0.00 0.00 0.00 0.00 0.00 0.00 0.00 0.00 0.00 0.00 0.00 0.01 0.01
0.00 0.00 0.00 0.00 0.01 0.00 0.00 0.00 0.00 0.00 0.00 0.00 0.00 0.00 0.00 0.00 0.00 0.00 0.00 0.00 0.01 0.00 0.00 0.00 0.00 0.01 0.01 0.00 0.00 0.00 0.00 0.00 0.00 0.01 0.00 0.00 0.00 0.00 0.00 0.01 0.01 0.01 0.01
0.00 0.00 0.00 0.01 0.01 0.01 0.00 0.00 0.00 0.00 0.00 0.00 0.00 0.00 0.00 0.00 0.00 0.00 0.00 0.00 0.00 0.00 0.00 0.00 0.00 0.00 0.00 0.00 0.01 0.01 0.01 0.01 0.01 0.01 0.00 0.00 0.00 0.00 0.00 0.00 0.01 0.01 0.01
0.00 0.00 0.00 0.01 0.01 0.01 0.01 0.00 0.00 0.00 0.00 0.00 0.00 0.00 0.00 0.00 0.00 0.00 0.00 0.01 0.00 0.00 0.00 0.00 0.00 0.00 0.01 0.01 0.01 0.02 0.01 0.01 0.01 0.01 0.01 0.01 0.01 0.01 0.00 0.00 0.00 0.01 0.00
0.00 0.00 0.00 0.00 0.01 0.01 0.01 0.01 0.00 0.00 0.00 0.00 0.00 0.00 0.00 0.00 0.00 0.00 0.00 0.01 0.01 0.01 0.00 0.00 0.00 0.00 0.00 0.01 0.01 0.01 0.01 0.01 0.01 0.01 0.02 0.01 0.01 0.01 0.01 0.01 0.01 0.01 0.00
MSLP
1017.69 1017.79 1017.92 1018.05 1018.17 1018.27 1018.37 1018.48 1018.61 1018.78 1018.98 1019.18 1019.38 1019.55 1019.65 1019.68 1019.63 1019.51 1019.35 1019.16 1018.97 1018.82 1018.71 1018.65 1018.63 1018.65 1018.69 1018.72 1018.75 1018.76 1018.75 1018.73 1018.70 1018.66 1018.62 1018.58 1018.54 1018.50 1018.46 1018.42 1018.38 1018.34 1018.30
1017.64 1017.80 1017.97 1018.13 1018.25 1018.35 1018.45 1018.55 1018.69 1018.88 1019.11 1019.37 1019.62 1019.84 1020.00 1020.07 1020.06 1019.97 1019.83 1019.66 1019.49 1019.36 1019.26 1019.21 1019.20 1019.20 1019.21 1019.21 1019.20 1019.16 1019.11 1019.05 1018.99 1018.93 1018.88 1018.84 1018.79 1018.75 1018.69 1018.64 1018.59 1018.54 1018.51
1017.54 1017.78 1018.02 1018.22 1018.37 1018.47 1018.55 1018.65 1018.78 1018.97 1019.22 1019.51 1019.81 1020.08 1020.29 1020.41 1020.44 1020.39 1020.28 1020.15 1020.02 1019.91 1019.84 1019.81 1019.79 1019.79 1019.78 1019.75 1019.69 1019.61 1019.53 1019.44 1019.35 1019.28 1019.23 1019.18 1019.13 1019.07 1019.01 1018.95 1018.88 1018.83 1018.80
1017.39 1017.74 1018.07 1018.33 1018.51 1018.62 1018.69 1018.77 1018.89 1019.07 1019.32 1019.62 1019.95 1020.26 1020.50 1020.67 1020.75 1020.74 1020.68 1020.59 1020.50 1020.43 1020.39 1020.37 1020.37 1020.36 1020.33 1020.28 1020.20 1020.10 1019.99 1019.88 1019.79 1019.72 1019.66 1019.61 1019.56 1019.49 1019.42 1019.34 1019.26 1019.20 1019.17
1017.20 1017.68 1018.11 1018.44 1018.66 1018.78 1018.84 1018.90 1018.99 1019.15 1019.39 1019.70 1020.03 1020.36 1020.64 1020.85 1020.97 1021.02 1021.00 1020.95 1020.90 1020.87 1020.85 1020.85 1020.86 1020.85 1020.83 1020.77 1020.68 1020.57 1020.46 1020.36 1020.27 1020.21 1020.16 1020.11 1020.06 1019.99 1019.90 1019.80 1019.70 1019.63 1019.58
1016.99 1017.59 1018.12 1018.51 1018.77 1018.90 1018.96 1019.00 1019.07 1019.21 1019.43 1019.73 1020.07 1020.41 1020.72 1020.95 1021.11 1021.19 1021.22 1021.21 1021.20 1021.19 1021.20 1021.22 1021.24 1021.25 1021.23 1021.18 1021.10 1021.01 1020.92 1020.84 1020.78 1020.74 1020.70 1020.67 1020.61 1020.53 1020.43 1020.31 1020.18 1020.09 1020.02
1016.76 1017.46 1018.06 1018.51 1018.80 1018.95 1019.01 1019.04 1019.10 1019.23 1019.44 1019.73 1020.07 1020.42 1020.74 1021.00 1021.18 1021.30 1021.35 1021.38 1021.39 1021.41 1021.44 1021.48 1021.51 1021.53 1021.53 1021.51 1021.46 1021.41 1021.35 1021.31 1021.29 1021.28 1021.27 1021.24 1021.19 1021.10 1020.98 1020.84 1020.69 1020.56 1020.47
1016.50 1017.26 1017.91 1018.40 1018.72 1018.90 1018.97 1019.01 1019.08 1019.21 1019.43 1019.72 1020.06 1020.42 1020.75 1021.03 1021.23 1021.36 1021.44 1021.49 1021.52 1021.56 1021.61 1021.66 1021.72 1021.76 1021.78 1021.79 1021.79 1021.78 1021.77 1021.78 1021.80 1021.82 1021.84 1021.83 1021.78 1021.68 1021.55 1021.38 1021.21 1021.05 1020.93
1016.24 1017.00 1017.66 1018.17 1018.51 1018.72 1018.83 1018.90 1019.01 1019.17 1019.41 1019.73 1020.09 1020.46 1020.80 1021.09 1021.30 1021.45 1021.55 1021.61 1021.66 1021.71 1021.77 1021.85 1021.92 1021.98 1022.04 1022.09 1022.12 1022.16 1022.20 1022.25 1022.31 1022.37 1022.41 1022.41 1022.37 1022.27 1022.12 1021.94 1021.74 1021.56 1021.41
1015.95 1016.68 1017.33 1017.83 1018.20 1018.44 1018.60 1018.74 1018.91 1019.14 1019.43 1019.79 1020.18 1020.57 1020.93 1021.22 1021.45 1021.61 1021.72 1021.80 1021.87 1021.94 1022.02 1022.11 1022.20 1022.29 1022.37 1022.45 1022.52 1022.59 1022.67 1022.76 1022.85 1022.93 1022.99 1023.00 1022.96 1022.87 1022.71 1022.52 1022.31 1022.11 1021.93
1015.64 1016.32 1016.92 1017.41 1017.80 1018.09 1018.33 1018.56 1018.82 1019.14 1019.51 1019.93 1020.36 1020.78 1021.16 1021.47 1021.72 1021.89 1022.02 1022.12 1022.21 1022.30 1022.40 1022.51 1022.63 1022.74 1022.85 1022.94 1023.04 1023.13 1023.23 1023.33 1023.43 1023.52 1023.58 1023.60 1023.57 1023.47 1023.32 1023.12 1022.91 1022.70 1022.51
1015.32 1015.93 1016.48 1016.97 1017.38 1017.73 1018.06 1018.40 1018.78 1019.20 1019.67 1020.16 1020.65 1021.11 1021.51 1021.84 1022.10 1022.30 1022.45 1022.58 1022.70 1022.82 1022.95 1023.09 1023.22 1023.35 1023.47 1023.58 1023.68 1023.77 1023.87 1023.97 1024.06 1024.15 1024.20 1024.21 1024.18 1024.08 1023.94 1023.75 1023.54 1023.34 1023.14
1015.00 1015.54 1016.06 1016.54 1016.99 1017.42 1017.85 1018.31 1018.81 1019.34 1019.91 1020.48 1021.02 1021.52 1021.95 1022.31 1022.59 1022.82 1023.00 1023.16 1023.32 1023.48 1023.64 1023.81 1023.96 1024.11 1024.23 1024.33 1024.42 1024.50 1024.58 1024.66 1024.73 1024.79 1024.82 1024.83 1024.78 1024.69 1024.56 1024.39 1024.19 1023.99 1023.80
1014.68 1015.18 1015.69 1016.18 1016.68 1017.19 1017.73 1018.31 1018.92 1019.57 1020.22 1020.85 1021.45 1021.98 1022.44 1022.82 1023.13 1023.39 1023.61 1023.82 1024.02 1024.22 1024.42 1024.61 1024.79 1024.94 1025.06 1025.15 1025.22 1025.27 1025.31 1025.35 1025.39 1025.42 1025.43 1025.42 1025.37 1025.29 1025.16 1025.01 1024.83 1024.64 1024.46
1014.39 1014.89 1015.40 1015.94 1016.49 1017.09 1017.72 1018.40 1019.12 1019.85 1020.57 1021.26 1021.90 1022.46 1022.94 1023.34 1023.68 1023.97 1024.24 1024.49 1024.73 1024.98 1025.21 1025.43 1025.62 1025.77 1025.88 1025.95 1025.99 1026.01 1026.02 1026.02 1026.02 1026.02 1026.01 1025.98 1025.92 1025.84 1025.72 1025.58 1025.42 1025.25 1025.07
1014.16 1014.69 1015.24 1015.82 1016.44 1017.11 1017.83 1018.58 1019.37 1020.16 1020.93 1021.66 1022.31 1022.90 1023.40 1023.82 1024.19 1024.52 1024.82 1025.11 1025.40 1025.68 1025.95 1026.18 1026.38 1026.53 1026.62 1026.67 1026.68 1026.67 1026.64 1026.61 1026.58 1026.55 1026.52 1026.48 1026.42 1026.34 1026.23 1026.10 1025.94 1025.78 1025.60
1014.02 1014.60 1015.21 1015.85 1016.53 1017.25 1018.02 1018.83 1019.66 1020.48 1021.27 1022.01 1022.68 1023.27 1023.78 1024.23 1024.62 1024.98 1025.32 1025.66 1025.98 1026.29 1026.57 1026.82 1027.01 1027.15 1027.23 1027.26 1027.24 1027.21 1027.16 1027.10 1027.06 1027.02 1026.97 1026.92 1026.86 1026.77 1026.66 1026.53 1026.38 1026.21 1026.02
1014.00 1014.65 1015.31 1016.00 1016.73 1017.49 1018.29 1019.11 1019.95 1020.78 1021.57 1022.31 1022.98 1023.57 1024.09 1024.56 1024.98 1025.37 1025.74 1026.10 1026.44 1026.77 1027.06 1027.30 1027.49 1027.61 1027.68 1027.69 1027.66 1027.61 1027.56 1027.50 1027.45 1027.40 1027.36 1027.30 1027.23 1027.14 1027.02 1026.88 1026.71 1026.52 1026.32
1014.11 1014.82 1015.53 1016.26 1017.01 1017.78 1018.58 1019.41 1020.23 1021.04 1021.82 1022.54 1023.20 1023.80 1024.33 1024.81 1025.26 1025.67 1026.07 1026.45 1026.80 1027.13 1027.42 1027.65 1027.82 1027.94 1027.99 1027.99 1027.96 1027.91 1027.86 1027.81 1027.76 1027.72 1027.68 1027.63 1027.55 1027.45 1027.31 1027.14 1026.94 1026.73 1026.50
1014.33 1015.09 1015.83 1016.58 1017.33 1018.09 1018.88 1019.67 1020.47 1021.25 1022.00 1022.71 1023.37 1023.97 1024.51 1025.02 1025.48 1025.92 1026.33 1026.72 1027.08 1027.40 1027.68 1027.90 1028.05 1028.15 1028.19 1028.19 1028.17 1028.13 1028.09 1028.05 1028.02 1027.99 1027.95 1027.89 1027.80 1027.68 1027.51 1027.31 1027.08 1026.82 1026.56
1014.63 1015.41 1016.17 1016.91 1017.65 1018.39 1019.14 1019.90 1020.66 1021.41 1022.14 1022.84 1023.49 1024.09 1024.66 1025.18 1025.66 1026.12 1026.54 1026.94 1027.30 1027.61 1027.87 1028.07 1028.21 1028.30 1028.34 1028.34 1028.32 1028.30 1028.27 1028.25 1028.22 1028.20 1028.15 1028.09 1027.98 1027.83 1027.63 1027.39 1027.11 1026.82 1026.51
1014.96 1015.74 1016.49 1017.21 1017.92 1018.63 1019.35 1020.07 1020.81 1021.53 1022.24 1022.93 1023.58 1024.20 1024.77 1025.31 1025.81 1026.28 1026.71 1027.11 1027.46 1027.76 1028.01 1028.20 1028.33 1028.41 1028.45 1028.46 1028.45 1028.44 1028.42 1028.40 1028.38 1028.35 1028.29 1028.20 1028.06 1027.88 1027.64 1027.36 1027.05 1026.72 1026.37
1015.25 1016.01 1016.74 1017.44 1018.12 1018.81 1019.49 1020.20 1020.90 1021.61 1022.31 1023.00 1023.65 1024.28 1024.87 1025.42 1025.93 1026.40 1026.84 1027.23 1027.57 1027.87 1028.11 1028.30 1028.43 1028.51 1028.56 1028.58 1028.58 1028.57 1028.55 1028.52 1028.49 1028.43 1028.34 1028.22 1028.05 1027.82 1027.55 1027.23 1026.89 1026.52 1026.15
1015.45 1016.19 1016.89 1017.57 1018.24 1018.90 1019.58 1020.27 1020.97 1021.67 1022.37 1023.05 1023.71 1024.34 1024.93 1025.49 1026.00 1026.47 1026.90 1027.30 1027.64 1027.93 1028.17 1028.36 1028.51 1028.60 1028.66 1028.69 1028.69 1028.67 1028.64 1028.60 1028.53 1028.43 1028.31 1028.14 1027.92 1027.66 1027.35 1027.01 1026.64 1026.26 1025.88
1015.52 1016.24 1016.93 1017.60 1018.26 1018.93 1019.61 1020.30 1021.00 1021.71 1022.41 1023.09 1023.75 1024.37 1024.96 1025.51 1026.02 1026.48 1026.91 1027.30 1027.64 1027.94 1028.19 1028.40 1028.56 1028.67 1028.75 1028.78 1028.79 1028.76 1028.70 1028.62 1028.51 1028.36 1028.18 1027.96 1027.70 1027.40 1027.07 1026.71 1026.33 1025.95 1025.57
1015.45 1016.16 1016.85 1017.53 1018.21 1018.89 1019.59 1020.30 1021.02 1021.73 1022.43 1023.11 1023.76 1024.38 1024.95 1025.48 1025.97 1026.43 1026.85 1027.23 1027.58 1027.89 1028.16 1028.39 1028.58 1028.72 1028.81 1028.85 1028.85 1028.81 1028.73 1028.60 1028.43 1028.23 1027.99 1027.72 1027.42 1027.09 1026.74 1026.38 1026.00 1025.63 1025.27
Thickness
5723 5723 5722 5721 5720 5720 5719 5718 5717 5716 5714 5713 5713 5713 5713 5714 5715 5714 5713 5713 5714 5713 5713 5714 5712 5710 5710 5708 5708 5706 5704 5703 5704 5703 5702 5704 5705 5705 5705 5705 5706 5707 5707
5723 5721 5720 5719 5719 5718 5718 5717 5716 5715 5714 5712 5713 5712 5712 5713 5713 5711 5711 5711 5712 5712 5712 5712 5711 5709 5707 5706 5705 5704 5703 5702 5703 5703 5701 5700 5702 5701 5703 5703 5703 5704 5704
5723 5722 5720 5719 5718 5716 5716 5716 5715 5714 5712 5712 5711 5710 5710 5711 5711 5710 5709 5709 5709 5709 5710 5710 5709 5708 5707 5705 5704 5703 5701 5700 5702 5703 5701 5699 5697 5699 5699 5700 5701 5700 5701
5724 5722 5720 5719 5717 5717 5716 5716 5714 5714 5712 5711 5710 5709 5708 5708 5708 5709 5708 5708 5708 5707 5707 5707 5707 5707 5706 5704 5703 5703 5702 5700 5700 5700 5700 5702 5701 5698 5696 5697 5698 5698 5697
5726 5723 5721 5720 5719 5718 5716 5715 5714 5713 5711 5710 5708 5708 5709 5709 5708 5708 5707 5708 5707 5706 5705 5705 5705 5705 5704 5703 5702 5701 5701 5700 5699 5699 5699 5698 5698 5701 5697 5692 5693 5694 5694
5727 5725 5723 5721 5719 5717 5714 5713 5712 5710 5709 5708 5708 5707 5707 5706 5705 5705 5706 5706 5706 5705 5704 5703 5703 5703 5702 5701 5700 5699 5698 5698 5697 5698 5698 5697 5697 5696 5695 5693 5691 5690 5691
5729 5725 5722 5719 5718 5715 5713 5712 5710 5708 5707 5707 5707 5707 5706 5705 5705 5705 5704 5705 5704 5703 5703 5702 5701 5701 5700 5699 5698 5697 5697 5697 5695 5695 5696 5695 5695 5696 5694 5693 5691 5688 5688
5730 5727 5724 5721 5718 5716 5714 5712 5710 5708 5707 5707 5707 5706 5705 5705 5704 5703 5704 5703 5703 5702 5700 5699 5699 5698 5697 5696 5695 5696 5695 5695 5694 5693 5692 5692 5692 5693 5692 5690 5688 5687 5687
5730 5727 5725 5722 5720 5717 5715 5713 5711 5709 5707 5707 5706 5705 5704 5703 5703 5702 5702 5701 5701 5699 5698 5697 5696 5695 5694 5694 5694 5693 5693 5692 5692 5691 5690 5690 5689 5689 5688 5687 5686 5684 5682
5730 5727 5725 5722 5721 5719 5716 5714 5712 5710 5707 5706 5705 5703 5702 5701 5700 5700 5699 5698 5698 5696 5695 5695 5694 5693 5692 5691 5691 5690 5689 5689 5687 5685 5686 5685 5686 5685 5684 5683 5683 5682 5680
5731 5729 5726 5723 5721 5719 5716 5713 5711 5709 5707 5705 5703 5701 5700 5699 5698 5697 5696 5695 5695 5694 5693 5692 5692 5691 5690 5689 5687 5687 5686 5686 5685 5684 5683 5681 5680 5680 5680 5679 5678 5677 5676
5732 5730 5727 5723 5720 5718 5716 5714 5712 5709 5706 5704 5702 5700 5699 5697 5696 5695 5694 5693 5692 5691 5691 5690 5689 5688 5687 5686 5685 5683 5682 5682 5681 5680 5679 5678 5676 5675 5675 5674 5673 5672 5671
5730 5728 5725 5722 5720 5718 5716 5714 5712 5710 5706 5703 5701 5699 5697 5696 5695 5694 5693 5691 5690 5689 5688 5687 5686 5685 5684 5683 5681 5681 5680 5679 5677 5676 5675 5674 5673 5672 5671 5669 5669 5668 5666
5729 5727 5724 5723 5721 5719 5717 5715 5713 5710 5706 5703 5700 5697 5696 5695 5694 5692 5690 5689 5688 5687 5686 5684 5683 5682 5680 5679 5678 5677 5676 5675 5674 5672 5671 5670 5668 5667 5666 5665 5664 5662 5660
5728 5727 5725 5724 5721 5719 5717 5715 5712 5710 5707 5702 5699 5698 5696 5694 5692 5690 5688 5686 5684 5684 5682 5681 5679 5678 5677 5676 5675 5673 5672 5671 5669 5667 5666 5663 5661 5659 5658 5658 5657 5656 5655
5729 5729 5728 5726 5723 5721 5719 5716 5713 5711 5707 5703 5700 5697 5695 5692 5689 5688 5686 5683 5681 5680 5678 5677 5676 5674 5672 5669 5667 5667 5667 5666 5665 5663 5661 5659 5656 5652 5649 5648 5647 5646 5647
5731 5730 5729 5728 5726 5725 5722 5717 5715 5712 5708 5704 5700 5696 5693 5690 5687 5686 5683 5680 5678 5676 5674 5673 5672 5671 5668 5664 5662 5661 5662 5661 5660 5658 5656 5654 5651 5649 5648 5644 5640 5638 5636
5732 5731 5731 5729 5729 5727 5723 5719 5715 5711 5708 5704 5700 5696 5693 5689 5686 5683 5680 5678 5677 5674 5672 5670 5669 5666 5664 5661 5658 5656 5657 5657 5655 5653 5652 5650 5647 5644 5642 5640 5638 5636 5632
5735 5734 5734 5732 5729 5726 5723 5718 5714 5711 5707 5703 5700 5696 5693 5688 5684 5681 5678 5676 5674 5672 5669 5668 5665 5663 5661 5657 5654 5652 5653 5652 5651 5648 5646 5644 5642 5637 5633 5633 5631 5629 5626
5734 5733 5732 5731 5728 5725 5722 5717 5713 5709 5705 5703 5700 5696 5693 5688 5683 5680 5678 5674 5671 5668 5666 5664 5662 5661 5658 5654 5650 5647 5649 5648 5646 5644 5641 5636 5634 5630 5626 5626 5625 5622 5620
5730 5730 5729 5727 5726 5724 5719 5714 5711 5708 5707 5703 5699 5695 5691 5686 5683 5679 5675 5671 5669 5665 5663 5661 5659 5657 5654 5650 5646 5644 5644 5643 5642 5639 5636 5633 5627 5623 5619 5617 5617 5614 5611
5725 5725 5724 5722 5722 5720 5716 5712 5709 5708 5705 5700 5695 5692 5688 5684 5680 5675 5672 5669 5666 5662 5659 5657 5656 5654 5651 5647 5643 5640 5637 5637 5636 5633 5630 5626 5620 5616 5612 5610 5607 5603 5600
5722 5721 5720 5717 5717 5716 5714 5710 5708 5705 5701 5696 5692 5689 5685 5681 5678 5673 5669 5666 5663 5660 5658 5655 5653 5651 5648 5644 5638 5635 5632 5629 5628 5627 5622 5617 5613 5609 5607 5603 5599 5596 5595
5718 5717 5715 5713 5712 5712 5710 5709 5706 5703 5699 5694 5690 5687 5683 5678 5675 5671 5668 5664 5661 5659 5656 5653 5650 5648 5645 5642 5638 5633 5629 5624 5621 5619 5614 5609 5606 5603 5600 5597 5594 5591 5589
5714 5713 5712 5710 5709 5708 5705 5704 5703 5700 5696 5692 5688 5684 5680 5676 5671 5667 5664 5661 5659 5658 5654 5651 5649 5645 5641 5637 5632 5629 5626 5622 5618 5614 5610 5607 5604 5601 5597 5593 5590 5585 5582
5710 5708 5707 5706 5706 5705 5702 5700 5699 5697 5694 5690 5685 5681 5676 5672 5668 5663 5658 5652 5651 5648 5646 5644 5642 5639 5635 5629 5624 5620 5617 5613 5609 5606 5605 5602 5598 5595 5591 5587 5583 5579 5575